Flood From: 21-02-2018 18:00 Until: 22-02-2018 16:00 warning for: Flood Level: Yellow info button

Although rather usual in this region, locally or potentially dangerous phenomena are expected. (such as local winds, summer thunderstorms, rising streams or high waves) Be aware and pay attention to the latest weather updates, especially if you carry out activities exposed to weather or close to a stream or shoreline. 


Meteo18 Weather Cam more information Meteo18 Weather Cam


Thunder radar more information blitzortung!


Rain radar more information rain snow radar


Visit our other weather sites:

Template documentation
and downloads

And another site



Weather Underground History page Text

Daily Summary for August 8, 2017 Units:  English    Metric   Both
« Previous Day
Next Day »
Daily Weekly Monthly Yearly Custom
  High: Low: Average:
Temperature: TemperatureC °F 14.6 °F 17.3 °F
Dew Point: DewpointC °F 10.2 °F 13.6 °F
Humidity: Humidity % 61 % 79 %
Wind Speed: WindSpeedKMH mph 0.0 mph 6.8 mph
Wind Gust: WindSpeedGustKMH mph - -
Wind:- - WSW
Pressure: PressurehPa in 1009.4 in -
Precipitation: 11.2 in    
Historical Graphs
 
 
Tabular Data for August 8, 2017
Time Temperature Dew Point Pressure Wind Wind Speed Wind Gust Humidity Rainfall Rate (Hourly)
TemperatureC °F DewpointC °F PressurehPa in Calm     Humidity % HourlyPrecipMM in
00:02 18.3 °F 14.2 °F 1012.4 in WNW 3.2 mph 3.2 mph 77 % 0.0 in
00:07 18.1 °F 14.2 °F 1012.4 in WNW 1.6 mph 4.8 mph 78 % 0.0 in
00:12 17.9 °F 14.0 °F 1012.4 in Calm   4.8 mph 78 % 0.0 in
00:17 17.9 °F 14.2 °F 1012.4 in West 1.6 mph 4.8 mph 79 % 0.0 in
00:22 18.0 °F 14.3 °F 1012.4 in Calm   4.8 mph 79 % 0.0 in
00:27 18.1 °F 14.4 °F 1012.4 in Calm   3.2 mph 79 % 0.0 in
00:32 18.1 °F 14.4 °F 1012.1 in Calm   1.6 mph 79 % 0.0 in
00:42 17.9 °F 14.6 °F 1012.1 in NW 1.6 mph 1.6 mph 81 % 0.0 in
00:47 17.8 °F 14.3 °F 1012.1 in Calm   3.2 mph 80 % 0.0 in
00:52 17.9 °F 14.2 °F 1012.4 in Calm   3.2 mph 79 % 0.0 in
00:57 18.1 °F 14.2 °F 1012.4 in Calm   3.2 mph 78 % 0.0 in
01:02 18.1 °F 14.2 °F 1012.4 in Calm   1.6 mph 78 % 0.0 in
01:07 18.2 °F 14.5 °F 1012.1 in Calm   3.2 mph 79 % 0.0 in
01:12 18.1 °F 14.2 °F 1012.1 in Calm   3.2 mph 78 % 0.0 in
01:17 18.0 °F 14.9 °F 1012.1 in SE 1.6 mph 3.2 mph 82 % 0.0 in
01:22 17.7 °F 15.1 °F 1012.1 in SSE 1.6 mph 4.8 mph 85 % 0.0 in
01:27 17.5 °F 15.1 °F 1012.1 in Calm   4.8 mph 86 % 0.0 in
01:32 17.4 °F 15.2 °F 1012.1 in Calm   3.2 mph 87 % 0.0 in
01:37 17.3 °F 15.1 °F 1012.1 in Calm   3.2 mph 87 % 0.0 in
01:42 17.2 °F 15.2 °F 1012.1 in Calm   3.2 mph 88 % 0.0 in
01:47 17.2 °F 15.2 °F 1012.1 in Calm   1.6 mph 88 % 0.0 in
01:52 17.1 °F 14.9 °F 1012.1 in Calm   1.6 mph 87 % 0.0 in
01:57 17.1 °F 14.7 °F 1012.1 in Calm   1.6 mph 86 % 0.0 in
02:02 17.2 °F 14.3 °F 1011.7 in Calm   1.6 mph 83 % 0.0 in
02:07 17.4 °F 14.3 °F 1011.7 in Calm   1.6 mph 82 % 0.0 in
02:12 17.5 °F 14.4 °F 1011.7 in Calm   1.6 mph 82 % 0.0 in
02:17 17.5 °F 14.4 °F 1011.7 in WNW 1.6 mph 1.6 mph 82 % 0.0 in
02:22 17.4 °F 14.3 °F 1011.7 in Calm   1.6 mph 82 % 0.0 in
02:27 17.4 °F 14.1 °F 1011.7 in WNW 1.6 mph 1.6 mph 81 % 0.0 in
02:32 17.3 °F 13.8 °F 1011.7 in Calm   4.8 mph 80 % 0.0 in
02:37 17.3 °F 13.8 °F 1011.7 in Calm   4.8 mph 80 % 0.0 in
02:42 17.4 °F 13.9 °F 1011.7 in Calm   4.8 mph 80 % 0.0 in
02:52 17.5 °F 13.8 °F 1011.4 in NNE 1.6 mph 3.2 mph 79 % 0.0 in
02:57 17.6 °F 13.7 °F 1011.4 in Calm   3.2 mph 78 % 0.0 in
03:02 17.6 °F 13.5 °F 1011.4 in WNW 1.6 mph 3.2 mph 77 % 0.0 in
03:07 17.6 °F 13.5 °F 1011.4 in Calm   3.2 mph 77 % 0.0 in
03:12 17.6 °F 13.5 °F 1011.1 in Calm   3.2 mph 77 % 0.0 in
03:17 17.6 °F 13.5 °F 1011.1 in Calm   3.2 mph 77 % 0.0 in
03:22 17.7 °F 13.4 °F 1011.1 in NW 1.6 mph 4.8 mph 76 % 0.0 in
03:27 17.9 °F 13.4 °F 1011.1 in WNW 3.2 mph 4.8 mph 75 % 0.0 in
03:32 18.1 °F 13.2 °F 1011.1 in Calm   4.8 mph 73 % 0.0 in
03:37 18.1 °F 13.2 °F 1011.1 in Calm   4.8 mph 73 % 0.0 in
03:42 18.2 °F 13.1 °F 1011.1 in WSW 1.6 mph 4.8 mph 72 % 0.0 in
03:52 18.3 °F 13.2 °F 1012.1 in WSW 9.7 mph 12.9 mph 72 % 0.0 in
03:57 18.5 °F 12.7 °F 1012.1 in WSW 24.1 mph 24.1 mph 69 % 0.0 in
04:02 17.9 °F 13.4 °F 1012.4 in West 16.1 mph 30.6 mph 75 % 0.5 in
04:07 17.3 °F 13.6 °F 1011.7 in WNW 6.4 mph 32.2 mph 79 % 0.5 in
04:12 16.9 °F 13.8 °F 1011.7 in WNW 8.0 mph 32.2 mph 82 % 0.5 in
04:17 16.7 °F 13.8 °F 1011.7 in NW 1.6 mph 32.2 mph 83 % 0.5 in
04:27 16.2 °F 13.9 °F 1011.7 in NW 8.0 mph 16.1 mph 86 % 0.8 in
04:32 16.1 °F 13.8 °F 1011.7 in West 1.6 mph 16.1 mph 86 % 0.8 in
04:42 16.0 °F 13.8 °F 1011.7 in WSW 8.0 mph 14.5 mph 87 % 1.0 in
04:47 16.0 °F 13.8 °F 1012.1 in Calm   12.9 mph 87 % 1.0 in
04:52 15.9 °F 13.7 °F 1012.1 in WSW 8.0 mph 12.9 mph 87 % 1.3 in
04:57 15.9 °F 13.9 °F 1012.1 in SW 1.6 mph 12.9 mph 88 % 1.0 in
05:02 15.8 °F 13.8 °F 1011.7 in Calm   9.7 mph 88 % 0.8 in
05:07 15.8 °F 13.8 °F 1011.1 in Calm   9.7 mph 88 % 1.0 in
05:12 15.8 °F 13.8 °F 1011.4 in Calm   6.4 mph 88 % 1.0 in
05:22 15.7 °F 13.7 °F 1011.1 in Calm   8.0 mph 88 % 0.8 in
05:32 15.5 °F 13.9 °F 1010.4 in Calm   8.0 mph 90 % 0.8 in
05:37 15.5 °F 13.9 °F 1010.4 in Calm   4.8 mph 90 % 0.5 in
05:42 15.4 °F 13.9 °F 1010.0 in NE 8.0 mph 8.0 mph 91 % 0.5 in
05:47 15.4 °F 13.9 °F 1009.4 in NE 3.2 mph 11.3 mph 91 % 1.0 in
05:52 15.4 °F 13.9 °F 1010.7 in WNW 1.6 mph 11.3 mph 91 % 1.0 in
06:02 15.3 °F 14.0 °F 1010.4 in Calm   4.8 mph 92 % 1.0 in
06:12 15.3 °F 14.0 °F 1010.0 in East 3.2 mph 3.2 mph 92 % 0.8 in
06:17 15.2 °F 14.1 °F 1010.0 in Calm   3.2 mph 93 % 0.5 in
06:22 15.2 °F 14.1 °F 1010.4 in East 1.6 mph 3.2 mph 93 % 0.5 in
06:27 15.1 °F 14.0 °F 1010.4 in Calm   3.2 mph 93 % 0.5 in
06:32 15.1 °F 14.0 °F 1010.0 in East 1.6 mph 3.2 mph 93 % 0.5 in
06:42 15.0 °F 13.9 °F 1010.7 in Calm   3.2 mph 93 % 0.5 in
06:47 14.9 °F 13.9 °F 1010.7 in Calm   3.2 mph 94 % 0.5 in
06:52 14.9 °F 13.9 °F 1011.1 in Calm   1.6 mph 94 % 0.3 in
06:57 14.9 °F 13.9 °F 1011.1 in SSW 3.2 mph 3.2 mph 94 % 0.0 in
07:02 14.9 °F 13.9 °F 1011.1 in WSW 6.4 mph 6.4 mph 94 % 0.0 in
07:12 15.0 °F 14.0 °F 1011.4 in SW 3.2 mph 8.0 mph 94 % 0.0 in
07:17 15.0 °F 14.0 °F 1011.4 in WSW 6.4 mph 14.5 mph 94 % 0.0 in
07:22 14.9 °F 13.9 °F 1011.4 in WSW 4.8 mph 14.5 mph 94 % 0.0 in
07:32 15.0 °F 14.0 °F 1011.4 in WSW 6.4 mph 12.9 mph 94 % 0.0 in
07:42 15.0 °F 14.0 °F 1011.4 in WSW 4.8 mph 9.7 mph 94 % 0.0 in
07:52 14.9 °F 13.9 °F 1011.7 in WSW 6.4 mph 14.5 mph 94 % 0.0 in
08:02 14.9 °F 13.9 °F 1011.7 in SW 3.2 mph 11.3 mph 94 % 0.0 in
08:07 14.9 °F 13.9 °F 1011.7 in SW 3.2 mph 17.7 mph 94 % 0.0 in
08:12 14.9 °F 13.9 °F 1011.7 in NW 4.8 mph 17.7 mph 94 % 0.0 in
08:17 14.9 °F 13.9 °F 1011.7 in WSW 11.3 mph 17.7 mph 94 % 0.0 in
08:22 15.0 °F 14.0 °F 1011.7 in SW 8.0 mph 11.3 mph 94 % 0.0 in
08:27 15.0 °F 14.0 °F 1012.1 in WSW 8.0 mph 11.3 mph 94 % 0.0 in
08:32 15.1 °F 14.1 °F 1012.1 in SW 6.4 mph 12.9 mph 94 % 0.0 in
08:37 15.1 °F 14.1 °F 1012.4 in SW 16.1 mph 19.3 mph 94 % 0.0 in
08:42 15.1 °F 14.1 °F 1012.4 in WSW 6.4 mph 19.3 mph 94 % 0.0 in
08:47 15.2 °F 14.2 °F 1012.4 in WSW 8.0 mph 19.3 mph 94 % 0.0 in
08:52 15.2 °F 14.2 °F 1012.4 in SW 6.4 mph 19.3 mph 94 % 0.0 in
08:57 15.3 °F 14.2 °F 1012.8 in SW 3.2 mph 11.3 mph 93 % 0.0 in
09:02 15.3 °F 14.2 °F 1012.4 in SW 1.6 mph 14.5 mph 93 % 0.0 in
09:12 15.3 °F 14.2 °F 1012.4 in WSW 4.8 mph 11.3 mph 93 % 0.0 in
09:17 15.4 °F 14.3 °F 1012.4 in WSW 11.3 mph 11.3 mph 93 % 0.0 in
09:22 15.6 °F 14.5 °F 1012.1 in West 11.3 mph 14.5 mph 93 % 0.0 in
09:32 16.1 °F 14.6 °F 1012.1 in West 9.7 mph 17.7 mph 91 % 0.0 in
09:37 16.3 °F 14.7 °F 1012.1 in West 11.3 mph 19.3 mph 90 % 0.0 in
09:42 16.3 °F 14.5 °F 1012.4 in WSW 6.4 mph 19.3 mph 89 % 0.0 in
09:47 16.3 °F 14.5 °F 1012.4 in WSW 6.4 mph 19.3 mph 89 % 0.0 in
09:57 16.3 °F 14.5 °F 1012.4 in SW 14.5 mph 16.1 mph 89 % 0.0 in
10:02 16.2 °F 14.2 °F 1012.4 in West 4.8 mph 16.1 mph 88 % 0.0 in
10:12 16.3 °F 14.3 °F 1012.4 in West 9.7 mph 19.3 mph 88 % 0.0 in
10:17 16.4 °F 14.4 °F 1012.4 in WSW 12.9 mph 19.3 mph 88 % 0.0 in
10:22 16.6 °F 14.6 °F 1012.4 in SW 4.8 mph 17.7 mph 88 % 0.0 in
10:32 16.6 °F 13.9 °F 1012.4 in West 16.1 mph 27.4 mph 84 % 0.0 in
10:42 16.6 °F 14.2 °F 1012.4 in West 8.0 mph 27.4 mph 86 % 0.0 in
10:47 16.9 °F 14.7 °F 1012.8 in WSW 14.5 mph 27.4 mph 87 % 0.0 in
10:52 17.3 °F 14.6 °F 1012.8 in SW 14.5 mph 22.5 mph 84 % 0.0 in
11:02 17.8 °F 14.9 °F 1012.8 in SW 9.7 mph 20.9 mph 83 % 0.0 in
11:12 17.8 °F 14.5 °F 1012.8 in SW 19.3 mph 27.4 mph 81 % 0.0 in
11:17 17.7 °F 14.6 °F 1012.8 in SW 19.3 mph 27.4 mph 82 % 0.0 in
11:22 17.6 °F 14.3 °F 1012.8 in SW 16.1 mph 27.4 mph 81 % 0.0 in
11:32 17.6 °F 14.9 °F 1013.1 in West 4.8 mph 27.4 mph 84 % 0.0 in
11:42 17.6 °F 14.9 °F 1013.1 in West 6.4 mph 27.4 mph 84 % 0.0 in
11:47 17.6 °F 14.5 °F 1013.1 in SW 14.5 mph 27.4 mph 82 % 0.0 in
11:52 17.7 °F 14.6 °F 1013.1 in WNW 9.7 mph 27.4 mph 82 % 0.0 in
11:57 17.9 °F 14.4 °F 1013.1 in WSW 16.1 mph 22.5 mph 80 % 0.0 in
12:02 17.9 °F 14.4 °F 1013.1 in WSW 16.1 mph 29.0 mph 80 % 0.0 in
12:07 18.2 °F 14.5 °F 1013.1 in WSW 11.3 mph 32.2 mph 79 % 0.0 in
12:12 18.4 °F 14.1 °F 1013.1 in WSW 17.7 mph 32.2 mph 76 % 0.0 in
12:17 18.6 °F 13.9 °F 1013.1 in West 17.7 mph 30.6 mph 74 % 0.0 in
12:22 18.4 °F 13.7 °F 1013.4 in West 16.1 mph 30.6 mph 74 % 0.0 in
12:32 18.4 °F 13.9 °F 1013.4 in West 11.3 mph 30.6 mph 75 % 0.0 in
12:42 18.5 °F 14.0 °F 1013.4 in West 11.3 mph 29.0 mph 75 % 0.0 in
12:47 18.8 °F 14.5 °F 1013.4 in WSW 4.8 mph 29.0 mph 76 % 0.0 in
12:52 19.2 °F 14.5 °F 1013.4 in WSW 9.7 mph 29.0 mph 74 % 0.0 in
12:57 19.7 °F 14.7 °F 1013.4 in West 6.4 mph 19.3 mph 73 % 0.0 in
13:02 19.6 °F 14.0 °F 1013.4 in SW 19.3 mph 19.3 mph 70 % 0.0 in
13:07 19.5 °F 14.3 °F 1013.4 in WSW 11.3 mph 29.0 mph 72 % 0.0 in
13:12 19.6 °F 14.2 °F 1013.4 in WSW 11.3 mph 30.6 mph 71 % 0.0 in
13:17 19.6 °F 14.2 °F 1013.4 in SW 12.9 mph 30.6 mph 71 % 0.0 in
13:22 19.7 °F 13.9 °F 1013.4 in West 12.9 mph 30.6 mph 69 % 0.0 in
13:27 19.9 °F 14.5 °F 1013.1 in WSW 14.5 mph 29.0 mph 71 % 0.0 in
13:32 20.0 °F 14.4 °F 1013.4 in WSW 11.3 mph 29.0 mph 70 % 0.0 in
13:42 20.1 °F 14.2 °F 1013.1 in SSW 6.4 mph 32.2 mph 69 % 0.0 in
13:47 20.4 °F 14.5 °F 1013.1 in West 9.7 mph 32.2 mph 69 % 0.0 in
13:52 20.8 °F 14.2 °F 1013.1 in SW 17.7 mph 32.2 mph 66 % 0.0 in
13:57 21.0 °F 14.2 °F 1013.1 in WSW 19.3 mph 22.5 mph 65 % 0.0 in
14:02 20.9 °F 13.6 °F 1013.1 in SW 8.0 mph 24.1 mph 63 % 0.0 in
14:07 20.9 °F 13.8 °F 1013.1 in WSW 6.4 mph 24.1 mph 64 % 0.0 in
14:12 21.0 °F 13.4 °F 1013.1 in SW 12.9 mph 27.4 mph 62 % 0.0 in
14:17 21.2 °F 14.4 °F 1013.1 in SW 16.1 mph 27.4 mph 65 % 0.0 in
14:22 21.3 °F 14.0 °F 1013.1 in SSW 14.5 mph 27.4 mph 63 % 0.0 in
14:27 21.1 °F 13.3 °F 1013.1 in WSW 19.3 mph 29.0 mph 61 % 0.0 in
14:32 20.7 °F 13.4 °F 1013.1 in WSW 11.3 mph 29.0 mph 63 % 0.0 in
14:37 20.7 °F 13.6 °F 1013.1 in West 8.0 mph 29.0 mph 64 % 0.0 in
14:42 20.8 °F 13.5 °F 1013.1 in West 14.5 mph 29.0 mph 63 % 0.0 in
14:47 20.8 °F 13.7 °F 1013.1 in West 9.7 mph 25.7 mph 64 % 0.0 in
14:52 20.8 °F 13.7 °F 1012.8 in WSW 9.7 mph 25.7 mph 64 % 0.0 in
14:57 20.9 °F 13.6 °F 1012.8 in SW 14.5 mph 22.5 mph 63 % 0.0 in
15:02 20.7 °F 13.6 °F 1013.1 in WNW 11.3 mph 25.7 mph 64 % 0.0 in
15:12 16.0 °F 13.1 °F 1014.1 in NW 12.9 mph 48.3 mph 83 % 3.0 in
15:17 14.9 °F 13.3 °F 1014.4 in WNW 9.7 mph 48.3 mph 90 % 5.6 in
15:22 14.8 °F 13.5 °F 1014.4 in West 3.2 mph 48.3 mph 92 % 7.1 in
15:32 14.8 °F 13.5 °F 1014.1 in WNW 8.0 mph 20.9 mph 92 % 8.9 in
15:37 14.8 °F 13.7 °F 1014.1 in NW 8.0 mph 20.9 mph 93 % 8.9 in
15:42 15.0 °F 13.9 °F 1014.1 in West 11.3 mph 17.7 mph 93 % 8.9 in
15:47 15.1 °F 13.8 °F 1014.1 in West 6.4 mph 17.7 mph 92 % 8.9 in
15:52 15.2 °F 13.9 °F 1014.1 in SW 3.2 mph 17.7 mph 92 % 8.9 in
15:57 15.3 °F 13.8 °F 1014.1 in South 11.3 mph 17.7 mph 91 % 8.9 in
16:02 15.7 °F 14.4 °F 1014.1 in SW 4.8 mph 12.9 mph 92 % 8.9 in
16:07 15.9 °F 14.3 °F 1014.1 in SW 4.8 mph 16.1 mph 90 % 8.9 in
16:12 16.2 °F 14.6 °F 1014.1 in WSW 6.4 mph 16.1 mph 90 % 5.1 in
16:17 16.6 °F 14.8 °F 1014.1 in SW 8.0 mph 16.1 mph 89 % 2.3 in
16:22 16.9 °F 14.9 °F 1014.1 in SSW 1.6 mph 14.5 mph 88 % 1.3 in
16:27 17.3 °F 15.5 °F 1014.1 in SW 8.0 mph 14.5 mph 89 % 0.5 in
16:32 17.6 °F 15.6 °F 1014.4 in SW 9.7 mph 14.5 mph 88 % 0.3 in
16:37 17.9 °F 16.1 °F 1014.4 in SW 8.0 mph 14.5 mph 89 % 0.0 in
16:42 18.3 °F 15.9 °F 1014.4 in SW 16.1 mph 17.7 mph 86 % 0.0 in
16:52 18.7 °F 15.0 °F 1014.4 in West 14.5 mph 17.7 mph 79 % 0.0 in
16:57 18.8 °F 14.7 °F 1014.4 in SW 14.5 mph 19.3 mph 77 % 0.0 in
17:02 18.8 °F 15.3 °F 1014.4 in West 16.1 mph 20.9 mph 80 % 0.0 in
17:07 19.0 °F 14.5 °F 1014.4 in WSW 6.4 mph 25.7 mph 75 % 0.0 in
17:12 19.1 °F 14.8 °F 1014.4 in WSW 9.7 mph 25.7 mph 76 % 0.0 in
17:17 19.0 °F 14.5 °F 1014.4 in SW 12.9 mph 25.7 mph 75 % 0.0 in
17:22 19.3 °F 14.8 °F 1014.4 in WSW 12.9 mph 19.3 mph 75 % 0.0 in
17:32 19.5 °F 14.5 °F 1014.8 in SW 12.9 mph 20.9 mph 73 % 0.0 in
17:37 19.6 °F 14.6 °F 1014.8 in WSW 11.3 mph 20.9 mph 73 % 0.0 in
17:42 19.6 °F 13.3 °F 1014.4 in West 11.3 mph 25.7 mph 67 % 0.0 in
17:47 19.5 °F 13.4 °F 1014.8 in West 9.7 mph 27.4 mph 68 % 0.0 in
17:52 19.4 °F 13.8 °F 1014.8 in NW 6.4 mph 27.4 mph 70 % 0.0 in
17:57 19.4 °F 14.2 °F 1014.8 in West 8.0 mph 27.4 mph 72 % 0.0 in
18:02 19.5 °F 13.7 °F 1014.4 in WSW 9.7 mph 19.3 mph 69 % 0.0 in
18:07 19.4 °F 13.8 °F 1014.8 in SW 11.3 mph 16.1 mph 70 % 0.0 in
18:12 19.2 °F 13.6 °F 1014.8 in WSW 3.2 mph 19.3 mph 70 % 0.0 in
18:17 19.3 °F 14.1 °F 1014.4 in WSW 8.0 mph 20.9 mph 72 % 0.0 in
18:22 19.4 °F 14.0 °F 1014.4 in WSW 4.8 mph 20.9 mph 71 % 0.0 in
18:32 19.2 °F 14.0 °F 1014.4 in West 4.8 mph 19.3 mph 72 % 0.0 in
18:37 19.4 °F 14.2 °F 1014.8 in West 4.8 mph 16.1 mph 72 % 0.0 in
18:42 19.6 °F 14.2 °F 1014.8 in WSW 11.3 mph 16.1 mph 71 % 0.0 in
18:47 19.5 °F 13.9 °F 1014.8 in WSW 12.9 mph 16.1 mph 70 % 0.0 in
18:52 19.4 °F 13.8 °F 1014.8 in WSW 3.2 mph 17.7 mph 70 % 0.0 in
18:57 19.4 °F 13.8 °F 1014.8 in WSW 11.3 mph 17.7 mph 70 % 0.0 in
19:02 19.4 °F 13.6 °F 1014.8 in WSW 8.0 mph 19.3 mph 69 % 0.0 in
19:07 19.5 °F 13.4 °F 1014.8 in SW 6.4 mph 19.3 mph 68 % 0.0 in
19:12 19.6 °F 12.8 °F 1014.8 in West 33.8 mph 33.8 mph 65 % 0.0 in
19:17 19.8 °F 12.3 °F 1014.8 in WSW 20.9 mph 33.8 mph 62 % 0.0 in
19:22 19.8 °F 12.3 °F 1014.8 in West 12.9 mph 33.8 mph 62 % 0.0 in
19:27 19.8 °F 12.3 °F 1014.8 in West 11.3 mph 33.8 mph 62 % 0.0 in
19:32 19.7 °F 12.5 °F 1015.1 in WSW 16.1 mph 27.4 mph 63 % 0.0 in
19:37 19.6 °F 12.6 °F 1015.1 in WSW 11.3 mph 22.5 mph 64 % 0.0 in
19:42 19.2 °F 12.2 °F 1015.1 in West 11.3 mph 22.5 mph 64 % 0.0 in
19:47 19.1 °F 12.4 °F 1015.1 in WNW 14.5 mph 22.5 mph 65 % 0.0 in
19:52 19.1 °F 12.8 °F 1015.1 in WSW 8.0 mph 22.5 mph 67 % 0.0 in
19:57 19.1 °F 12.8 °F 1015.1 in WNW 6.4 mph 20.9 mph 67 % 0.0 in
20:02 19.1 °F 12.8 °F 1015.1 in SW 3.2 mph 17.7 mph 67 % 0.0 in
20:07 19.1 °F 12.8 °F 1015.1 in WSW 4.8 mph 16.1 mph 67 % 0.0 in
20:12 19.0 °F 12.7 °F 1015.1 in WSW 9.7 mph 14.5 mph 67 % 0.0 in
20:17 19.1 °F 13.1 °F 1015.1 in WSW 8.0 mph 14.5 mph 68 % 0.0 in
20:22 19.1 °F 13.1 °F 1015.5 in SW 8.0 mph 12.9 mph 68 % 0.0 in
20:27 19.1 °F 13.3 °F 1015.5 in West 4.8 mph 14.5 mph 69 % 0.0 in
20:32 19.0 °F 13.0 °F 1015.5 in WSW 6.4 mph 14.5 mph 68 % 0.0 in
20:37 18.7 °F 12.7 °F 1015.5 in WSW 9.7 mph 14.5 mph 68 % 0.0 in
20:42 18.4 °F 11.7 °F 1015.5 in WSW 9.7 mph 16.1 mph 65 % 0.0 in
20:47 18.2 °F 11.0 °F 1015.8 in West 8.0 mph 16.1 mph 63 % 0.0 in
20:52 18.1 °F 10.5 °F 1015.8 in WSW 8.0 mph 17.7 mph 61 % 0.0 in
20:57 17.9 °F 10.3 °F 1016.1 in WSW 8.0 mph 19.3 mph 61 % 0.0 in
21:02 17.8 °F 10.2 °F 1016.1 in SW 3.2 mph 19.3 mph 61 % 0.0 in
21:07 17.7 °F 10.6 °F 1016.1 in SW 11.3 mph 19.3 mph 63 % 0.0 in
21:12 17.4 °F 10.5 °F 1016.1 in SW 6.4 mph 19.3 mph 64 % 0.0 in
21:17 17.3 °F 10.7 °F 1016.1 in SW 6.4 mph 17.7 mph 65 % 0.0 in
21:22 17.2 °F 11.0 °F 1016.1 in WSW 9.7 mph 12.9 mph 67 % 0.0 in
21:27 17.0 °F 11.3 °F 1016.5 in SW 8.0 mph 11.3 mph 69 % 0.0 in
21:32 16.9 °F 11.4 °F 1016.5 in West 4.8 mph 11.3 mph 70 % 0.0 in
21:37 16.7 °F 11.6 °F 1016.5 in WSW 8.0 mph 11.3 mph 72 % 0.0 in
21:42 16.7 °F 11.6 °F 1016.5 in SW 1.6 mph 12.9 mph 72 % 0.0 in
21:47 16.6 °F 11.7 °F 1016.5 in West 3.2 mph 12.9 mph 73 % 0.0 in
21:52 16.4 °F 11.8 °F 1016.5 in West 3.2 mph 12.9 mph 74 % 0.0 in
21:57 16.3 °F 11.7 °F 1016.5 in WSW 6.4 mph 9.7 mph 74 % 0.0 in
22:02 16.3 °F 11.5 °F 1016.8 in West 4.8 mph 11.3 mph 73 % 0.0 in
22:07 16.2 °F 11.4 °F 1016.8 in SW 4.8 mph 11.3 mph 73 % 0.0 in
22:12 16.1 °F 11.3 °F 1016.8 in West 3.2 mph 11.3 mph 73 % 0.0 in
22:17 16.0 °F 11.4 °F 1016.8 in West 3.2 mph 11.3 mph 74 % 0.0 in
22:22 15.8 °F 11.4 °F 1016.8 in SW 1.6 mph 8.0 mph 75 % 0.0 in
22:32 15.7 °F 11.3 °F 1016.8 in SSW 1.6 mph 4.8 mph 75 % 0.0 in
22:37 15.3 °F 11.3 °F 1016.8 in SSW 3.2 mph 4.8 mph 77 % 0.0 in
22:42 15.2 °F 11.4 °F 1016.8 in SW 3.2 mph 6.4 mph 78 % 0.0 in
22:47 15.1 °F 11.5 °F 1017.2 in SW 3.2 mph 6.4 mph 79 % 0.0 in
22:52 15.2 °F 11.4 °F 1017.2 in Calm   8.0 mph 78 % 0.0 in
22:57 15.1 °F 11.5 °F 1017.2 in Calm   8.0 mph 79 % 0.0 in
23:02 14.9 °F 11.5 °F 1017.2 in SW 3.2 mph 8.0 mph 80 % 0.0 in
23:07 14.9 °F 11.5 °F 1017.2 in Calm   6.4 mph 80 % 0.0 in
23:12 15.0 °F 11.4 °F 1017.2 in WSW 3.2 mph 6.4 mph 79 % 0.0 in
23:17 15.1 °F 11.3 °F 1017.2 in SW 3.2 mph 12.9 mph 78 % 0.0 in
23:22 15.2 °F 11.4 °F 1017.2 in SSW 1.6 mph 12.9 mph 78 % 0.0 in
23:27 14.9 °F 11.7 °F 1017.2 in SSE 1.6 mph 11.3 mph 81 % 0.0 in
23:32 14.8 °F 11.8 °F 1017.2 in SSW 3.2 mph 11.3 mph 82 % 0.0 in
23:42 14.7 °F 11.8 °F 1017.5 in SSW 3.2 mph 8.0 mph 83 % 0.0 in
23:47 14.6 °F 11.7 °F 1017.5 in SW 1.6 mph 8.0 mph 83 % 0.0 in
23:52 14.7 °F 11.8 °F 1017.5 in SW 1.6 mph 6.4 mph 83 % 0.0 in
Meteo18
Compliments of Weather Underground - 4 mb

Script developed by  Jim McMurry - jmcmurry@mwt.net Adapted for the template by  Wim van der Kuil - Leuven-Template.eu

You find our weather info also at:

European Weather Network

Weather Underground

Equipment we use:

Weather-station
Davis Vue

Weather-program
Meteobridge

Weather-server
Raspberry PI 2 B+

Provider
1 and 1

Davis Vue

Meteobridge

Raspberry PI 2 B+

1 and 1